Simultaneous Nadir Overpasses (SNOs) Predictions

Prediction of SNOs between LANDSAT-8 and NOAA-19 Satellite Orbit:

Table of predicted SNOs for the next 14.0 days since TLE Epoch: 9/18/2015
Index Date (LANDSAT-8) Time (LANDSAT-8) Lat,Lon (LANDSAT-8) SZA (LANDSAT-8 ) Date (NOAA-19) Time (NOAA-19) Lat,Lon (NOAA-19) SZA (NOAA-19 ) Distance(km) Time Diff (sec)
1 09/20/2015 21:10:09 -73.64, 44.85 107.37 09/20/2015 21:09:09 -73.64, 44.86 107.38 1.06 60
2 09/20/2015 21:59:36 73.56,-147.68 72.56 09/20/2015 22:00:09 73.55,-147.69 72.56 1.41 33
3 09/23/2015 02:43:53 73.63, 141.39 73.49 09/23/2015 02:43:27 73.61, 141.39 73.47 2.20 26
4 09/23/2015 03:33:22 -73.56, -51.12 106.57 09/23/2015 03:34:26 -73.55, -51.22 106.57 3.62 64
5 09/25/2015 07:28:03 74.05, 71.26 74.80 09/25/2015 07:26:54 74.11, 69.35 74.81 58.62 69
6 09/25/2015 08:17:40 -73.58,-122.16 105.69 09/25/2015 08:17:43 -73.59,-122.11 105.67 2.71 3
7 09/27/2015 13:01:57 -73.64, 166.89 104.77 09/27/2015 13:01:00 -73.64, 167.00 104.77 3.56 57
8 09/27/2015 13:51:23 73.60, -25.55 75.20 09/27/2015 13:52:02 73.57, -25.60 75.19 3.03 39
9 09/29/2015 18:35:40 73.65, -96.51 76.12 09/29/2015 18:35:20 73.65, -96.56 76.12 1.50 20
10 09/29/2015 19:25:10 -73.54, 70.89 103.99 09/29/2015 19:26:17 -73.57, 70.88 103.95 3.66 67
11 10/01/2015 23:19:54 73.85,-167.14 77.19 10/01/2015 23:18:42 73.92,-168.02 77.23 28.30 72
12 10/02/2015 00:09:26 -73.64, 0.03 103.03 10/02/2015 00:09:34 -73.63, -0.03 103.04 2.36 8
